International Skating Union - Official Site

ISU World Cup Speed Skating Erfurt
January 19 - 21, 2018

Draw | Lap Times | Index | World Cup

Referee: Ivan  DYAKOV  (RUS)
Starter: Ole Herman  SÖRLI  (NOR)
StartTime: EndTime: Air Temp: Ice Temp: Humidity:
14:50 15:54 16.8℃ -7℃ 30%
Result 5000m Men Division A
Rankings as of Jan 20 2018 4:03PM
Rank: No.: Name: Nation: Time: Behind: Points:
1 84 Sverre Lunde  Pedersen NOR NOR 6:14.66200m - 18.68 - (18.6)
600m - 47.87 - (29.1)
1000m - 1:17.55 - (29.6)
1400m - 1:47.11 - (29.5)
1800m - 2:17.10 - (29.9)
2200m - 2:46.85 - (29.7)
2600m - 3:16.74 - (29.8)
3000m - 3:46.35 - (29.6)
3400m - 4:15.88 - (29.5)
3800m - 4:45.20 - (29.3)
4200m - 5:14.87 - (29.6)
4600m - 5:44.47 - (29.6)
5000m - 6:14.66 - (30.1)
100
2 53 Nicola  Tumolero ITA ITA 6:16.11200m - 18.58 - (18.5)
600m - 47.93 - (29.3)
1000m - 1:17.63 - (29.7)
1400m - 1:47.23 - (29.6)
1800m - 2:17.09 - (29.8)
2200m - 2:47.04 - (29.9)
2600m - 3:16.79 - (29.7)
3000m - 3:46.40 - (29.6)
3400m - 4:15.98 - (29.5)
3800m - 4:45.57 - (29.5)
4200m - 5:15.27 - (29.7)
4600m - 5:45.40 - (30.1)
5000m - 6:16.11 - (30.7)
1.45 80
3 11 Ted-Jan  Bloemen CAN CAN 6:17.11200m - 18.77 - (18.7)
600m - 48.64 - (29.8)
1000m - 1:18.51 - (29.8)
1400m - 1:48.60 - (30.0)
1800m - 2:18.39 - (29.7)
2200m - 2:48.13 - (29.7)
2600m - 3:17.89 - (29.7)
3000m - 3:47.71 - (29.8)
3400m - 4:17.72 - (30.0)
3800m - 4:47.71 - (29.9)
4200m - 5:17.50 - (29.7)
4600m - 5:47.18 - (29.6)
5000m - 6:17.11 - (29.9)
2.45 70
4 105 Alexander  Rumyantsev RUS RUS 6:17.75200m - 19.31 - (19.3)
600m - 49.37 - (30.0)
1000m - 1:19.35 - (29.9)
1400m - 1:49.42 - (30.0)
1800m - 2:19.32 - (29.9)
2200m - 2:48.90 - (29.5)
2600m - 3:18.39 - (29.4)
3000m - 3:47.84 - (29.4)
3400m - 4:17.26 - (29.4)
3800m - 4:46.87 - (29.6)
4200m - 5:16.66 - (29.7)
4600m - 5:47.00 - (30.3)
5000m - 6:17.75 - (30.7)
3.09 60
5 35 Patrick  Beckert GER GER 6:19.53200m - 19.32 - (19.3)
600m - 48.54 - (29.2)
1000m - 1:18.60 - (30.0)
1400m - 1:48.46 - (29.8)
1800m - 2:18.55 - (30.0)
2200m - 2:48.44 - (29.8)
2600m - 3:18.54 - (30.1)
3000m - 3:48.75 - (30.2)
3400m - 4:18.83 - (30.0)
3800m - 4:49.08 - (30.2)
4200m - 5:19.24 - (30.1)
4600m - 5:49.33 - (30.0)
5000m - 6:19.53 - (30.2)
4.87 50
6 6 Bart  Swings BEL BEL 6:20.31200m - 19.00 - (19.0)
600m - 48.70 - (29.7)
1000m - 1:18.92 - (30.2)
1400m - 1:49.06 - (30.1)
1800m - 2:18.93 - (29.8)
2200m - 2:48.89 - (29.9)
2600m - 3:18.79 - (29.9)
3000m - 3:48.81 - (30.0)
3400m - 4:18.58 - (29.7)
3800m - 4:48.61 - (30.0)
4200m - 5:18.91 - (30.3)
4600m - 5:49.32 - (30.4)
5000m - 6:20.31 - (30.9)
5.65 45
7 72 Patrick  Roest NED NED 6:21.04200m - 19.17 - (19.1)
600m - 48.98 - (29.8)
1000m - 1:19.22 - (30.2)
1400m - 1:49.27 - (30.0)
1800m - 2:19.33 - (30.0)
2200m - 2:49.48 - (30.1)
2600m - 3:19.75 - (30.2)
3000m - 3:49.98 - (30.2)
3400m - 4:20.58 - (30.6)
3800m - 4:51.14 - (30.5)
4200m - 5:21.73 - (30.5)
4600m - 5:51.85 - (30.1)
5000m - 6:21.04 - (29.1)
6.38 40
8 62 Marcel  Bosker NED NED 6:21.73200m - 19.02 - (19.0)
600m - 49.24 - (30.2)
1000m - 1:19.13 - (29.8)
1400m - 1:49.54 - (30.4)
1800m - 2:19.46 - (29.9)
2200m - 2:49.68 - (30.2)
2600m - 3:19.72 - (30.0)
3000m - 3:49.94 - (30.2)
3400m - 4:20.10 - (30.1)
3800m - 4:50.58 - (30.4)
4200m - 5:20.95 - (30.3)
4600m - 5:51.54 - (30.5)
5000m - 6:21.73 - (30.1)
7.07 35
9 106 Danila  Semerikov RUS RUS 6:22.25200m - 19.17 - (19.1)
600m - 49.75 - (30.5)
1000m - 1:20.57 - (30.8)
1400m - 1:51.07 - (30.5)
1800m - 2:20.99 - (29.9)
2200m - 2:51.38 - (30.3)
2600m - 3:21.58 - (30.2)
3000m - 3:51.96 - (30.3)
3400m - 4:22.06 - (30.1)
3800m - 4:52.03 - (29.9)
4200m - 5:21.70 - (29.6)
4600m - 5:51.61 - (29.9)
5000m - 6:22.25 - (30.6)
7.59 30
10 39 Moritz  Geisreiter GER GER 6:22.42200m - 18.93 - (18.9)
600m - 48.02 - (29.0)
1000m - 1:17.40 - (29.3)
1400m - 1:47.60 - (30.2)
1800m - 2:17.90 - (30.3)
2200m - 2:48.17 - (30.2)
2600m - 3:18.33 - (30.1)
3000m - 3:48.94 - (30.6)
3400m - 4:19.35 - (30.4)
3800m - 4:49.88 - (30.5)
4200m - 5:20.78 - (30.9)
4600m - 5:51.75 - (30.9)
5000m - 6:22.42 - (30.6)
7.76 25
11 49 Andrea  Giovannini ITA ITA 6:24.94200m - 18.80 - (18.8)
600m - 48.10 - (29.3)
1000m - 1:17.84 - (29.7)
1400m - 1:47.58 - (29.7)
1800m - 2:17.52 - (29.9)
2200m - 2:47.48 - (29.9)
2600m - 3:17.94 - (30.4)
3000m - 3:48.50 - (30.5)
3400m - 4:19.15 - (30.6)
3800m - 4:49.94 - (30.7)
4200m - 5:21.26 - (31.3)
4600m - 5:52.78 - (31.5)
5000m - 6:24.94 - (32.1)
10.28 21
12 78 Håvard  Bøkko NOR NOR 6:26.63200m - 18.84 - (18.8)
600m - 49.29 - (30.4)
1000m - 1:19.99 - (30.7)
1400m - 1:50.59 - (30.6)
1800m - 2:21.10 - (30.5)
2200m - 2:51.69 - (30.5)
2600m - 3:22.23 - (30.5)
3000m - 3:52.83 - (30.6)
3400m - 4:23.47 - (30.6)
3800m - 4:54.06 - (30.5)
4200m - 5:24.77 - (30.7)
4600m - 5:55.70 - (30.9)
5000m - 6:26.63 - (30.9)
11.97 18
13 83 Simen Spieler  Nilsen NOR NOR 6:28.71200m - 18.89 - (18.8)
600m - 49.53 - (30.6)
1000m - 1:20.78 - (31.2)
1400m - 1:51.15 - (30.3)
1800m - 2:21.93 - (30.7)
2200m - 2:52.57 - (30.6)
2600m - 3:23.08 - (30.5)
3000m - 3:53.89 - (30.8)
3400m - 4:24.78 - (30.8)
3800m - 4:55.62 - (30.8)
4200m - 5:26.43 - (30.8)
4600m - 5:57.59 - (31.1)
5000m - 6:28.71 - (31.1)
14.05 16
14 48 Davide  Ghiotto ITA ITA 6:32.89200m - 19.87 - (19.8)
600m - 49.33 - (29.4)
1000m - 1:19.67 - (30.3)
1400m - 1:49.75 - (30.0)
1800m - 2:19.98 - (30.2)
2200m - 2:50.31 - (30.3)
2600m - 3:20.83 - (30.5)
3000m - 3:51.62 - (30.7)
3400m - 4:22.88 - (31.2)
3800m - 4:54.58 - (31.7)
4200m - 5:27.01 - (32.4)
4600m - 5:59.92 - (32.9)
5000m - 6:32.89 - (32.9)
18.23 14
15 10 Jordan  Belchos CAN CAN 6:33.79200m - 19.78 - (19.7)
600m - 50.71 - (30.9)
1000m - 1:21.58 - (30.8)
1400m - 1:52.01 - (30.4)
1800m - 2:22.54 - (30.5)
2200m - 2:53.33 - (30.7)
2600m - 3:24.38 - (31.0)
3000m - 3:55.67 - (31.2)
3400m - 4:27.24 - (31.5)
3800m - 4:58.99 - (31.7)
4200m - 5:30.84 - (31.8)
4600m - 6:02.41 - (31.5)
5000m - 6:33.79 - (31.3)
19.13 12
16 14 Benjamin  Donnelly CAN CAN 6:38.28200m - 19.93 - (19.9)
600m - 51.58 - (31.6)
1000m - 1:23.45 - (31.8)
1400m - 1:54.28 - (30.8)
1800m - 2:25.69 - (31.4)
2200m - 2:57.02 - (31.3)
2600m - 3:28.64 - (31.6)
3000m - 4:00.19 - (31.5)
3400m - 4:32.10 - (31.9)
3800m - 5:04.31 - (32.2)
4200m - 5:36.10 - (31.7)
4600m - 6:07.50 - (31.4)
5000m - 6:38.28 - (30.7)
23.62 10